Torna al catalogo

ESIAFI 1

COMSTAR 4

AttivoComunicazioniGEO
NORAD 12309·PAYLOAD·🇺🇸 United States

Lanciato Feb 21, 1981 da Cape Canaveral Space Force Station

Loading…

TLE

AggiornatoSource: Space-Track

Epoca: Sep 13, 2026, 16:28 UTC

1 12309U 81018A   26256.68622691 -.00000072  00000-0  00000-0 0  9994
2 12309   8.5356 310.6773 0001599  75.1282 284.8373  1.00281564168333

Traccia ESIAFI 1 in tempo reale con AllMySat

Download on the App Store